Погода в Новых Бурасах

Россия / Саратовская область     52°07′46″N   46°04′35″E
темп.,
°C
ветер,
м/с
пор.,
м/с
влажн.,
%
обл.,
%
осадки,
мм/ч
давл.,
гПа
погр.,
м
16 июня, ср
ср1601:00+17вюв117143 0.0 100611
04:00+16ююв117335 0.1 100611
07:00+18ююз23820 0.0 1006145
10:00+22юз45774 0.0 1007650
13:00+23юз5576100 0.3 1008914
16:00+23з587836 1.4 1008617
19:00+22зсз598017 1.3 1009585
22:00+18зсз4119232 1.5 1011238
17 июня, чт
чт1701:00+17сз379441 0.0 1012140
04:00+16ссз4109698 0.0 1014256
07:00+17с511919 0.0 1015388
10:00+20с79690 0.0 1016760
13:00+22ссв68540 0.0 10181173
16:00+22с67540 0.0 10181436
19:00+20с59660 0.0 1020571
22:00+16с512750 0.0 1021303
18 июня, пт
пт1801:00+13ссв512810 0.0 1022286
04:00+12ссв512803 0.0 1023235
07:00+14св511770 0.0 1024378
10:00+17св68540 0.0 10261090
13:00+19св67480 0.0 10261391
16:00+20св67490 0.0 10261538
19:00+18св47640 0.0 1026457
22:00+13всв33780 0.0 102727
19 июня, сб
сб1901:00+12св337961 0.0 102829
04:00+11св337610 0.0 102828
07:00+14св237362 0.0 1029116
10:00+18в226096 0.0 1029642
13:00+22всв12480 0.0 10281120
16:00+23св22451 0.0 10271239
19:00+22ссв12601 0.0 1026537
22:00+17с11692 0.0 102611
20 июня, вс
вс2001:00+16ссз22776 0.0 102611
04:00+15с22830 0.0 102716
07:00+18ссв23810 0.0 1027113
10:00+23св23690 0.0 1026730
13:00+26св22570 0.0 10251380
16:00+27ссв22543 0.0 10241585
19:00+26ссв22660 0.0 1024200
22:00+21ссв12730 0.0 102411